Flag for Greece Weather past 2 weeks in Kalamata, Greece

Now
68 °F

Scattered clouds.


Feels Like: 68 °F
Forecast: 52 / 70 °F
Wind: 5 mph from North

Location: Kalamata Airport

Current Time: Apr 19, 2015 at 7:41:42 PM

Latest Report: Apr 19, 2015 at 6:50 PM


Visibility: N/A

Pressure: 29.83 "Hg

Humidity: 64%

Dew point: 55 °F

Location of KalamataLocation

Historic Weather in Kalamata — Graph

°F

Kalamata temperature yesterday

Maximum temperature yesterday: 72 °F (at 2:20 PM)
Minimum temperature yesterday: 45 °F (at 5:50 AM)
Average temperature yesterday: 60 °F

Past Weeks' High & Low Weather Summary

 TemperatureHumidityPressure
High75 °F (Apr 17, 12:20 PM)94% (Apr 5, 1:50 AM)30.36 "Hg (Apr 5, 1:50 AM)
Low36 °F (Apr 11, 6:50 AM)13% (Apr 10, 4:50 PM)29.74 "Hg (Apr 6, 1:20 PM)
Average58 °F62%30.08 "Hg
* Reported Apr 4 6:20 PM — Apr 19 6:20 PM, Kalamata, Weather by CustomWeather, © 2015

Note: Actual official high and low records may vary slightly from our data, if they occured in-between our weather recording intervals... More about our weather records

Advertising

Kalamata weather history for previous 24 hours

 ConditionsComfort  
Time TempWeatherWind HumidityBarometerVisibility
6:20 PM
Sun, Apr 19
66 °FDrizzle. Broken clouds.No wind64%29.83 "HgN/A
5:50 PM66 °FBroken clouds.No wind64%29.86 "HgN/A
5:20 PM66 °FBroken clouds.No wind68%29.89 "HgN/A
4:50 PM66 °FBroken clouds.No wind68%29.89 "HgN/A
4:20 PM68 °FBroken clouds.No wind64%29.86 "HgN/A
3:50 PM68 °FBroken clouds.5 mph60%29.86 "HgN/A
3:20 PM68 °FBroken clouds.No wind60%29.86 "HgN/A
2:50 PM68 °FBroken clouds.8 mph64%29.83 "HgN/A
2:20 PM70 °FPartly sunny.6 mph53%29.83 "HgN/A
1:50 PM73 °FBroken clouds.No wind47%29.86 "HgN/A
1:20 PM73 °FBroken clouds.No wind41%29.86 "HgN/A
12:50 PM72 °FBroken clouds.No wind50%29.86 "HgN/A
12:20 PM72 °FBroken clouds.No wind53%29.89 "HgN/A
11:50 AM72 °FSunny.No wind57%29.89 "Hg10 mi
11:20 AM72 °FClear.No wind50%29.92 "Hg6 mi
10:50 AM68 °FClear.No wind64%29.89 "Hg6 mi
10:20 AM66 °FClear.No wind68%29.92 "Hg4 mi
9:50 AM64 °FFog.No wind73%29.92 "Hg6 mi
9:20 AM61 °FFog.No wind83%29.92 "Hg6 mi
8:50 AM57 °FFog.No wind88%29.92 "Hg4 mi
8:20 AM54 °FFog.No wind94%29.92 "Hg6 mi
7:50 AM52 °FFog.No wind94%29.92 "Hg6 mi
7:20 AM50 °FFog.No wind94%29.92 "Hg6 mi
6:50 AM48 °FFog.No wind94%29.92 "Hg6 mi
6:20 AM50 °FClear.No wind94%29.89 "Hg10 mi
5:50 AM50 °FClear.No wind94%29.89 "Hg10 mi
4:50 AM52 °FClear.No wind94%29.89 "Hg10 mi
3:50 AM52 °FClear.No wind94%29.92 "Hg10 mi
2:50 AM52 °FClear.No wind94%29.92 "Hg10 mi
1:50 AM52 °FClear.No wind94%29.95 "Hg10 mi
12:50 AM52 °FClear.No wind94%29.92 "Hg10 mi
11:50 PM
Sat, Apr 18
54 °FClear.No wind94%29.95 "Hg10 mi
10:50 PM55 °FClear.No wind88%29.95 "Hg10 mi
9:50 PM57 °FClear.No wind82%29.95 "Hg10 mi
8:50 PM59 °FSunny.No wind82%29.92 "Hg10 mi
8:20 PM61 °FSunny.No wind77%29.95 "Hg10 mi
7:50 PM64 °FSunny.No wind68%29.95 "Hg10 mi
7:20 PM66 °FSunny.5 mph64%29.95 "Hg10 mi
Weather by CustomWeather, © 2015

See weather overviewHow to use our weather pages